| time (UTC) | temp F | wind direction | speed MPH | gust MPH | rain 1hr in | rain 24hr in | rain mn in | humidity % | barometer mb |
| 20260508063012 | 68 | 329 | 0.0 | 1.0 | 0.00 | 0.00 | 0.00 | 32 | 1008.0 |
| 20260508061512 | 68 | 329 | 0.0 | 2.0 | 0.00 | 0.00 | 0.00 | 32 | 1008.0 |
| 20260508060011 | 67 | 62 | 0.0 | 1.0 | 0.00 | 0.00 | 0.00 | 36 | 1008.0 |
| 20260508054511 | 67 | 76 | 0.0 | 1.0 | 0.00 | 0.00 | 0.00 | 35 | 1008.1 |
| 20260508053011 | 68 | 76 | 0.0 | 1.0 | 0.00 | 0.00 | 0.00 | 36 | 1008.0 |
| 20260508051509 | 69 | 93 | 0.0 | 1.0 | 0.00 | 0.00 | 0.00 | 32 | 1008.0 |
| 20260508050009 | 70 | 93 | 0.0 | 1.0 | 0.00 | 0.00 | 0.00 | 31 | 1008.0 |
| 20260508044513 | 71 | 93 | 0.0 | 0.0 | 0.00 | 0.00 | 0.00 | 28 | 1007.9 |
| 20260508043008 | 72 | 93 | 0.0 | 3.0 | 0.00 | 0.00 | 0.00 | 27 | 1007.8 |
| 20260508041508 | 73 | 94 | 0.0 | 3.0 | 0.00 | 0.00 | 0.00 | 25 | 1007.5 |
| 20260508040009 | 73 | 105 | 0.0 | 2.0 | 0.00 | 0.00 | 0.00 | 25 | 1007.5 |
| 20260508034506 | 72 | 290 | 0.0 | 0.0 | 0.00 | 0.00 | 0.00 | 27 | 1007.0 |
| 20260508033015 | 74 | 287 | 0.0 | 0.0 | 0.00 | 0.00 | 0.00 | 25 | 1006.7 |
| 20260508031505 | 75 | 287 | 0.0 | 4.0 | 0.00 | 0.00 | 0.00 | 24 | 1006.5 |
| 20260508030005 | 76 | 259 | 0.0 | 5.0 | 0.00 | 0.00 | 0.00 | 22 | 1006.4 |
| 20260508024504 | 77 | 323 | 4.0 | 12.0 | 0.00 | 0.00 | 0.00 | 20 | 1005.8 |
| 20260508023003 | 80 | 333 | 4.0 | 10.0 | 0.00 | 0.00 | 0.00 | 18 | 1005.3 |
| 20260508021503 | 82 | 347 | 5.0 | 11.0 | 0.00 | 0.00 | 0.00 | 14 | 1004.7 |
| 20260508020004 | 83 | 313 | 5.0 | 0.0 | 0.00 | 0.00 | 0.00 | 14 | 1004.3 |
| 20260508014505 | 84 | 323 | 3.0 | 13.0 | 0.00 | 0.00 | 0.00 | 13 | 1004.0 |
| 20260508013110 | 86 | 308 | 7.0 | 16.0 | 0.00 | 0.00 | 0.00 | 13 | 1003.9 |
| 20260508011603 | 87 | 325 | 1.0 | 4.0 | 0.00 | 0.00 | 0.00 | 13 | 1003.9 |
| 20260508010057 | 88 | 328 | 2.0 | 5.0 | 0.00 | 0.00 | 0.00 | 12 | 1003.8 |
| 20260508004600 | 87 | 305 | 2.0 | 6.0 | 0.00 | 0.00 | 0.00 | 12 | 1003.7 |
| 20260508003106 | 88 | 289 | 3.0 | 7.0 | 0.00 | 0.00 | 0.00 | 12 | 1003.6 |
| 20260508001555 | 87 | 328 | 4.0 | 9.0 | 0.00 | 0.00 | 0.00 | 12 | 1003.5 |
| 20260508000053 | 89 | 322 | 1.0 | 3.0 | 0.00 | 0.00 | 0.00 | 12 | 1003.6 |
| 20260507234553 | 87 | 282 | 1.0 | 3.0 | 0.00 | 0.00 | 0.00 | 12 | 1003.7 |
| 20260507233052 | 84 | 319 | 2.0 | 5.0 | 0.00 | 0.00 | 0.00 | 14 | 1003.8 |
| 20260507231556 | 86 | 309 | 2.0 | 6.0 | 0.00 | 0.00 | 0.00 | 13 | 1003.9 |
| 20260507230048 | 88 | 274 | 2.0 | 8.0 | 0.00 | 0.00 | 0.00 | 12 | 1003.9 |
| 20260507224558 | 88 | 103 | 0.0 | 10.0 | 0.00 | 0.00 | 0.00 | 12 | 1004.1 |
| 20260507223048 | 89 | 226 | 4.0 | 10.0 | 0.00 | 0.00 | 0.00 | 11 | 1004.1 |
| 20260507221544 | 88 | 279 | 1.0 | 8.0 | 0.00 | 0.00 | 0.00 | 13 | 1004.3 |
| 20260507220041 | 89 | 137 | 2.0 | 9.0 | 0.00 | 0.00 | 0.00 | 11 | 1004.4 |
| 20260507214541 | 87 | 260 | 2.0 | 8.0 | 0.00 | 0.00 | 0.00 | 13 | 1004.7 |
| 20260507213037 | 87 | 105 | 4.0 | 8.0 | 0.00 | 0.00 | 0.00 | 11 | 1005.0 |
| 20260507211534 | 88 | 70 | 4.0 | 8.0 | 0.00 | 0.00 | 0.00 | 12 | 1005.1 |
| 20260507210058 | 86 | 13 | 1.0 | 6.0 | 0.00 | 0.00 | 0.00 | 13 | 1005.5 |
| 20260507204528 | 85 | 281 | 0.0 | 3.0 | 0.00 | 0.00 | 0.00 | 13 | 1005.7 |
| 20260507203028 | 85 | 131 | 3.0 | 10.0 | 0.00 | 0.00 | 0.00 | 12 | 1006.0 |
| 20260507201532 | 86 | 290 | 1.0 | 5.0 | 0.00 | 0.00 | 0.00 | 13 | 1006.1 |
| 20260507200038 | 86 | 279 | 0.0 | 5.0 | 0.00 | 0.00 | 0.00 | 13 | 1006.2 |
| 20260507194521 | 85 | 261 | 0.0 | 5.0 | 0.00 | 0.00 | 0.00 | 13 | 1006.3 |
| 20260507193026 | 85 | 314 | 0.0 | 11.0 | 0.00 | 0.00 | 0.00 | 14 | 1006.6 |
| 20260507191524 | 84 | 75 | 4.0 | 7.0 | 0.00 | 0.00 | 0.00 | 13 | 1006.7 |
| 20260507190023 | 84 | 320 | 2.0 | 11.0 | 0.00 | 0.00 | 0.00 | 14 | 1006.9 |
| 20260507184513 | 84 | 108 | 0.0 | 6.0 | 0.00 | 0.00 | 0.00 | 14 | 1007.1 |
| 20260507183009 | 82 | 308 | 2.0 | 7.0 | 0.00 | 0.00 | 0.00 | 16 | 1007.2 |
| 20260507181506 | 82 | 328 | 1.0 | 4.0 | 0.00 | 0.00 | 0.00 | 19 | 1007.5 |
| 20260507180001 | 81 | 256 | 1.0 | 5.0 | 0.00 | 0.00 | 0.00 | 19 | 1007.9 |
| 20260507174608 | 79 | 277 | 1.0 | 6.0 | 0.00 | 0.00 | 0.00 | 22 | 1008.1 |
| 20260507173131 | 79 | 304 | 2.0 | 4.0 | 0.00 | 0.00 | 0.00 | 22 | 1008.4 |
| 20260507171552 | 77 | 254 | 1.0 | 5.0 | 0.00 | 0.00 | 0.00 | 22 | 1008.5 |
| 20260507170052 | 76 | 323 | 1.0 | 4.0 | 0.00 | 0.00 | 0.00 | 25 | 1008.7 |
| 20260507164553 | 74 | 328 | 0.0 | 4.0 | 0.00 | 0.00 | 0.00 | 26 | 1008.8 |
| 20260507163042 | 73 | 288 | 1.0 | 5.0 | 0.00 | 0.00 | 0.00 | 25 | 1009.0 |
| 20260507161540 | 73 | 251 | 1.0 | 5.0 | 0.00 | 0.00 | 0.00 | 26 | 1009.1 |
| 20260507160057 | 72 | 259 | 0.0 | 4.0 | 0.00 | 0.00 | 0.00 | 27 | 1009.3 |
| 20260507154535 | 70 | 321 | 1.0 | 4.0 | 0.00 | 0.00 | 0.00 | 29 | 1009.3 |
| 20260507153033 | 69 | 274 | 0.0 | 1.0 | 0.00 | 0.00 | 0.00 | 30 | 1009.5 |
| 20260507151529 | 69 | 224 | 0.0 | 1.0 | 0.00 | 0.00 | 0.00 | 32 | 1009.5 |
| 20260507150025 | 67 | 136 | 0.0 | 0.0 | 0.00 | 0.00 | 0.00 | 34 | 1009.7 |
| 20260507144532 | 67 | 108 | 0.0 | 1.0 | 0.00 | 0.00 | 0.00 | 35 | 1009.6 |
| 20260507143020 | 66 | 170 | 0.0 | 0.0 | 0.00 | 0.00 | 0.00 | 36 | 1009.8 |
| 20260507141523 | 65 | 176 | 0.0 | 0.0 | 0.00 | 0.00 | 0.00 | 39 | 1009.8 |
| 20260507140014 | 63 | 176 | 0.0 | 0.0 | 0.00 | 0.00 | 0.00 | 43 | 1009.8 |
| 20260507134512 | 61 | 46 | 0.0 | 0.0 | 0.00 | 0.00 | 0.00 | 45 | 1009.7 |
| 20260507133013 | 57 | 46 | 0.0 | 0.0 | 0.00 | 0.00 | 0.00 | 51 | 1009.7 |
| 20260507131510 | 55 | 46 | 0.0 | 0.0 | 0.00 | 0.00 | 0.00 | 52 | 1009.7 |
| 20260507130024 | 56 | 46 | 0.0 | 0.0 | 0.00 | 0.00 | 0.00 | 49 | 1009.4 |
| 20260507124512 | 55 | 46 | 0.0 | 0.0 | 0.00 | 0.00 | 0.00 | 47 | 1009.3 |
| 20260507123008 | 54 | 20 | 0.0 | 0.0 | 0.00 | 0.00 | 0.00 | 50 | 1009.2 |
| 20260507121508 | 54 | 20 | 0.0 | 0.0 | 0.00 | 0.00 | 0.00 | 49 | 1009.1 |
| 20260507120010 | 55 | 20 | 0.0 | 1.0 | 0.00 | 0.00 | 0.00 | 50 | 1009.3 |
| 20260507114504 | 55 | 349 | 0.0 | 0.0 | 0.00 | 0.00 | 0.00 | 49 | 1009.3 |
| 20260507113003 | 56 | 342 | 0.0 | 1.0 | 0.00 | 0.00 | 0.00 | 46 | 1009.3 |
| 20260507111503 | 54 | 351 | 0.0 | 0.0 | 0.00 | 0.00 | 0.00 | 51 | 1009.3 |
| 20260507110059 | 56 | 351 | 0.0 | 0.0 | 0.00 | 0.00 | 0.00 | 53 | 1009.4 |
| 20260507104556 | 57 | 351 | 0.0 | 0.0 | 0.00 | 0.00 | 0.00 | 51 | 1009.4 |
| 20260507103053 | 58 | 351 | 0.0 | 0.0 | 0.00 | 0.00 | 0.00 | 50 | 1009.2 |
| 20260507101602 | 59 | 351 | 0.0 | 1.0 | 0.00 | 0.00 | 0.00 | 40 | 1009.2 |
| 20260507100050 | 58 | 328 | 0.0 | 1.0 | 0.00 | 0.00 | 0.00 | 40 | 1009.3 |
| 20260507094549 | 59 | 326 | 0.0 | 0.0 | 0.00 | 0.00 | 0.00 | 40 | 1009.3 |
| 20260507093047 | 60 | 326 | 0.0 | 1.0 | 0.00 | 0.00 | 0.00 | 42 | 1009.4 |
| 20260507091545 | 60 | 326 | 0.0 | 2.0 | 0.00 | 0.00 | 0.00 | 41 | 1009.7 |
| 20260507090043 | 60 | 326 | 1.0 | 2.0 | 0.00 | 0.00 | 0.00 | 40 | 1009.9 |
| 20260507084544 | 61 | 325 | 1.0 | 2.0 | 0.00 | 0.00 | 0.00 | 37 | 1009.9 |
| 20260507083041 | 60 | 325 | 1.0 | 2.0 | 0.00 | 0.00 | 0.00 | 38 | 1009.8 |
| 20260507081540 | 61 | 314 | 0.0 | 2.0 | 0.00 | 0.00 | 0.00 | 41 | 1010.0 |
| 20260507080040 | 61 | 335 | 1.0 | 3.0 | 0.00 | 0.00 | 0.00 | 39 | 1009.9 |
| 20260507074539 | 59 | 335 | 1.0 | 2.0 | 0.00 | 0.00 | 0.00 | 44 | 1009.9 |
| 20260507073036 | 60 | 338 | 0.0 | 2.0 | 0.00 | 0.00 | 0.00 | 48 | 1009.8 |
| 20260507071533 | 60 | 97 | 0.0 | 0.0 | 0.00 | 0.00 | 0.00 | 45 | 1010.0 |
| 20260507070031 | 60 | 97 | 0.0 | 0.0 | 0.00 | 0.00 | 0.00 | 42 | 1009.9 |
| 20260507064530 | 60 | 97 | 0.0 | 1.0 | 0.00 | 0.00 | 0.00 | 44 | 1009.8 |